FW2335 Weather Reports


time (UTC)temp
C
wind
direction
speed
KPH
gust
KPH
rain 1hr
cm
rain 24hr
cm
rain mn
cm
humidity
%
barometer
mb
20260906221024 38 225 6.4 11.3 0.00 0.00 0.00 39 1011.8
20260906220522 38 113 8.0 17.7 0.00 0.00 0.00 39 1011.8
20260906220022 38 158 6.4 14.5 0.00 0.00 0.00 40 1011.9
20260906215524 39 135 6.4 14.5 0.00 0.00 0.00 41 1012.0
20260906215042 39 113 9.7 20.9 0.00 0.00 0.00 40 1012.0
20260906214522 39 113 6.4 16.1 0.00 0.00 0.00 39 1012.1
20260906214022 39 90 9.7 16.1 0.00 0.00 0.00 38 1012.1
20260906213547 40 135 8.0 17.7 0.00 0.00 0.00 38 1012.2
20260906213045 39 135 12.9 24.1 0.00 0.00 0.00 38 1012.3
20260906212605 39 68 6.4 12.9 0.00 0.00 0.00 38 1012.4
20260906212043 38 113 8.0 16.1 0.00 0.00 0.00 39 1012.5
20260906211543 38 113 11.3 17.7 0.00 0.00 0.00 39 1012.6
20260906211141 38 135 8.0 19.3 0.00 0.00 0.00 40 1012.7
20260906210537 38 158 11.3 22.5 0.00 0.00 0.00 40 1012.8
20260906210035 37 90 6.4 12.9 0.00 0.00 0.00 42 1012.8
20260906205535 37 135 8.0 12.9 0.00 0.00 0.00 41 1012.9
20260906205033 37 135 11.3 22.5 0.00 0.00 0.00 41 1012.9
20260906204533 38 135 8.0 19.3 0.00 0.00 0.00 41 1013.1
20260906204041 38 203 8.0 14.5 0.00 0.00 0.00 40 1013.1
20260906203521 38 225 8.0 16.1 0.00 0.00 0.00 39 1013.1
20260906203022 38 135 8.0 17.7 0.00 0.00 0.00 39 1013.2
20260906202521 39 180 8.0 20.9 0.00 0.00 0.00 39 1013.2
20260906202021 39 203 6.4 14.5 0.00 0.00 0.00 37 1013.3
20260906201521 39 135 9.7 27.4 0.00 0.00 0.00 39 1013.3
20260906201022 39 135 9.7 27.4 0.00 0.00 0.00 40 1013.5
20260906200548 38 135 9.7 17.7 0.00 0.00 0.00 40 1013.5
20260906200047 38 135 12.9 24.1 0.00 0.00 0.00 42 1013.6
20260906195543 38 135 8.0 25.7 0.00 0.00 0.00 41 1013.5
20260906195044 38 113 4.8 11.3 0.00 0.00 0.00 41 1013.7
20260906194541 38 113 6.4 12.9 0.00 0.00 0.00 41 1013.7
20260906194105 38 135 8.0 17.7 0.00 0.00 0.00 41 1013.7
20260906193539 38 113 9.7 17.7 0.00 0.00 0.00 42 1013.9
20260906193025 38 135 8.0 17.7 0.00 0.00 0.00 40 1013.8
20260906192535 38 135 9.7 17.7 0.00 0.00 0.00 40 1014.0
20260906192033 39 158 11.3 22.5 0.00 0.00 0.00 38 1014.1
20260906191533 39 135 9.7 20.9 0.00 0.00 0.00 40 1014.1
20260906191023 38 135 11.3 22.5 0.00 0.00 0.00 41 1014.1
20260906190522 37 90 8.0 12.9 0.00 0.00 0.00 42 1014.1
20260906190042 37 90 8.0 14.5 0.00 0.00 0.00 43 1014.2
20260906185522 38 90 11.3 32.2 0.00 0.00 0.00 41 1014.3
20260906185023 38 113 11.3 32.2 0.00 0.00 0.00 40 1014.2
20260906184522 37 90 1.6 6.4 0.00 0.00 0.00 42 1014.4
20260906184049 37 90 6.4 14.5 0.00 0.00 0.00 42 1014.5
20260906183537 38 113 9.7 16.1 0.00 0.00 0.00 41 1014.6
20260906183044 38 90 8.0 19.3 0.00 0.00 0.00 40 1014.6
20260906182545 38 135 9.7 16.1 0.00 0.00 0.00 39 1014.6
20260906182044 38 135 12.9 22.5 0.00 0.00 0.00 41 1014.6
20260906181542 37 90 9.7 17.7 0.00 0.00 0.00 43 1014.7
20260906181039 38 113 12.9 19.3 0.00 0.00 0.00 40 1014.8
20260906180536 38 158 6.4 17.7 0.00 0.00 0.00 40 1014.8
20260906180034 38 135 12.9 29.0 0.00 0.00 0.00 41 1015.0
20260906175534 38 203 8.0 17.7 0.00 0.00 0.00 40 1015.0
20260906175023 38 135 9.7 16.1 0.00 0.00 0.00 41 1015.2
20260906174533 37 135 11.3 20.9 0.00 0.00 0.00 42 1015.3
20260906174021 38 203 8.0 16.1 0.00 0.00 0.00 41 1015.4
20260906173543 38 135 11.3 22.5 0.00 0.00 0.00 44 1015.5
20260906173022 37 135 8.0 17.7 0.00 0.00 0.00 42 1015.6
20260906172522 37 135 8.0 16.1 0.00 0.00 0.00 44 1015.6
20260906172022 37 158 9.7 17.7 0.00 0.00 0.00 41 1015.6
20260906171521 37 135 6.4 14.5 0.00 0.00 0.00 44 1015.7
20260906171022 37 90 8.0 19.3 0.00 0.00 0.00 44 1015.8
20260906170522 37 68 9.7 19.3 0.00 0.00 0.00 45 1015.9
20260906170022 37 90 8.0 14.5 0.00 0.00 0.00 45 1015.9
20260906165602 37 113 12.9 20.9 0.00 0.00 0.00 45 1016.0
20260906165022 37 135 8.0 17.7 0.00 0.00 0.00 44 1015.9
20260906164540 37 135 4.8 11.3 0.00 0.00 0.00 48 1015.9
20260906164038 37 135 6.4 16.1 0.00 0.00 0.00 46 1015.9
20260906163537 36 113 6.4 16.1 0.00 0.00 0.00 48 1015.9
20260906163037 36 113 6.4 16.1 0.00 0.00 0.00 48 1016.0
20260906162534 36 158 8.0 16.1 0.00 0.00 0.00 47 1016.0
20260906162032 36 135 9.7 17.7 0.00 0.00 0.00 47 1015.9
20260906161555 36 113 6.4 14.5 0.00 0.00 0.00 50 1015.9
20260906161021 36 113 4.8 12.9 0.00 0.00 0.00 50 1015.9
20260906160541 35 113 6.4 14.5 0.00 0.00 0.00 50 1015.9
20260906160021 35 113 4.8 6.4 0.00 0.00 0.00 51 1015.9
20260906155521 35 113 6.4 14.5 0.00 0.00 0.00 52 1015.9
20260906155022 35 113 8.0 14.5 0.00 0.00 0.00 52 1015.9
20260906154823 35 90 4.8 8.0 0.00 0.00 0.00 56 1016.0
20260906154022 34 90 6.4 11.3 0.00 0.00 0.00 53 1015.9
20260906153521 34 45 3.2 6.4 0.00 0.00 0.00 56 1015.8
20260906153025 34 45 3.2 11.3 0.00 0.00 0.00 58 1015.8
20260906152521 33 23 4.8 8.0 0.00 0.00 0.00 60 1015.8
20260906152021 33 45 4.8 8.0 0.00 0.00 0.00 61 1015.7
20260906151521 32 45 4.8 8.0 0.00 0.00 0.00 63 1015.6
20260906151057 32 158 3.2 6.4 0.00 0.00 0.00 65 1015.6
20260906150536 32 158 3.2 6.4 0.00 0.00 0.00 65 1015.6
20260906150058 32 158 1.6 3.2 0.00 0.00 0.00 63 1015.8
20260906145534 32 158 1.6 3.2 0.00 0.00 0.00 64 1015.8
20260906145032 32 158 1.6 3.2 0.00 0.00 0.00 63 1015.9
20260906144612 31 158 3.2 6.4 0.00 0.00 0.00 64 1015.9
20260906144021 31 158 3.2 6.4 0.00 0.00 0.00 67 1015.9
20260906143537 31 158 3.2 6.4 0.00 0.00 0.00 69 1015.9
20260906143442 30 158 4.8 11.3 0.00 0.00 0.00 71 1015.9
20260906142552 30 158 4.8 8.0 0.00 0.00 0.00 72 1015.9
20260906142052 30 113 3.2 6.4 0.00 0.00 0.00 73 1015.8
20260906141543 29 113 1.6 4.8 0.00 0.00 0.00 73 1015.8
20260906141048 29 113 3.2 4.8 0.00 0.00 0.00 74 1015.8
20260906140546 28 113 1.6 4.8 0.00 0.00 0.00 76 1015.8
20260906140045 28 113 3.2 6.4 0.00 0.00 0.00 76 1015.7
20260906135544 28 113 3.2 4.8 0.00 0.00 0.00 77 1015.7
20260906135040 27 113 1.6 3.2 0.00 0.00 0.00 78 1015.6
20260906134529 27 113 1.6 3.2 0.00 0.00 0.00 77 1015.5
20260906134040 27 113 1.6 4.8 0.00 0.00 0.00 78 1015.7
20260906133610 27 113 3.2 4.8 0.00 0.00 0.00 79 1015.7
20260906133358 27 113 4.8 9.7 0.00 0.00 0.00 80 1015.6
20260906132604 26 225 3.2 6.4 0.00 0.00 0.00 81 1015.6
20260906132102 26 225 3.2 6.4 0.00 0.00 0.00 81 1015.6
20260906131600 26 225 1.6 4.8 0.00 0.00 0.00 82 1015.6
20260906131058 25 225 3.2 4.8 0.00 0.00 0.00 83 1015.6
20260906130558 25 0.0 3.2 0.00 0.00 0.00 83 1015.5
20260906130116 25 0.0 0.0 0.00 0.00 0.00 85 1015.3
20260906125540 25 0.0 0.0 0.00 0.00 0.00 84 1015.4
20260906125052 25 0.0 0.0 0.00 0.00 0.00 84 1015.4
20260906124630 25 0.0 0.0 0.00 0.00 0.00 85 1015.3
20260906124048 24 0.0 0.0 0.00 0.00 0.00 85 1015.2
20260906123546 24 0.0 0.0 0.00 0.00 0.00 85 1015.2
20260906123046 24 0.0 1.6 0.00 0.00 0.00 85 1015.2
20260906122544 24 0.0 0.0 0.00 0.00 0.00 85 1015.2
20260906122042 24 0.0 0.0 0.00 0.00 0.00 84 1015.2
20260906121540 24 0.0 0.0 0.00 0.00 0.00 84 1015.1
20260906121100 24 0.0 3.2 0.00 0.00 0.00 84 1015.1
20260906120524 24 0.0 3.2 0.00 0.00 0.00 84 1015.1
20260906120035 25 0.0 3.2 0.00 0.00 0.00 83 1015.1
20260906115536 25 0.0 3.2 0.00 0.00 0.00 83 1015.1
20260906115033 25 225 1.6 3.2 0.00 0.00 0.00 82 1015.0
20260906114533 25 225 1.6 3.2 0.00 0.00 0.00 82 1015.0
20260906114021 25 225 1.6 3.2 0.00 0.00 0.00 82 1015.0
20260906113521 25 0.0 3.2 0.00 0.00 0.00 82 1015.0
20260906113021 25 225 1.6 3.2 0.00 0.00 0.00 82 1015.1
20260906112521 25 225 1.6 3.2 0.00 0.00 0.00 82 1014.9
20260906112041 25 0.0 3.2 0.00 0.00 0.00 82 1014.8
20260906111521 25 0.0 1.6 0.00 0.00 0.00 81 1014.7
20260906111048 25 0.0 1.6 0.00 0.00 0.00 80 1014.6
20260906110546 25 0.0 0.0 0.00 0.00 0.00 81 1014.7
20260906110044 25 0.0 3.2 0.00 0.00 0.00 80 1014.5
20260906105543 25 225 1.6 4.8 0.00 0.00 0.00 79 1014.4
20260906105040 25 225 1.6 3.2 0.00 0.00 0.00 80 1014.4
20260906104540 25 225 3.2 6.4 0.00 0.00 0.00 79 1014.5
20260906104040 25 225 4.8 6.4 0.00 0.00 0.00 79 1014.5
20260906103536 25 225 4.8 6.4 0.00 0.00 0.00 79 1014.4
20260906103034 25 225 3.2 4.8 0.00 0.00 0.00 80 1014.4
20260906102535 25 0.0 3.2 0.00 0.00 0.00 78 1014.3
20260906102032 25 0.0 1.6 0.00 0.00 0.00 78 1014.2
20260906101541 25 0.0 0.0 0.00 0.00 0.00 78 1014.1
20260906101021 26 225 1.6 3.2 0.00 0.00 0.00 77 1014.1
20260906100521 26 0.0 3.2 0.00 0.00 0.00 77 1014.1
20260906100024 26 225 1.6 3.2 0.00 0.00 0.00 77 1014.2
20260906095601 26 225 3.2 4.8 0.00 0.00 0.00 77 1014.2
20260906095021 26 225 1.6 4.8 0.00 0.00 0.00 77 1014.2
20260906094522 26 225 1.6 4.8 0.00 0.00 0.00 77 1014.0
20260906094021 26 0.0 0.0 0.00 0.00 0.00 77 1014.0
20260906093522 26 0.0 0.0 0.00 0.00 0.00 76 1014.0
20260906093021 26 0.0 0.0 0.00 0.00 0.00 76 1014.0
20260906092522 26 0.0 3.2 0.00 0.00 0.00 74 1014.0
20260906092041 26 225 1.6 4.8 0.00 0.00 0.00 74 1013.9
20260906091607 26 225 4.8 6.4 0.00 0.00 0.00 74 1013.9
20260906091107 26 225 4.8 6.4 0.00 0.00 0.00 74 1014.1
20260906090605 26 225 3.2 4.8 0.00 0.00 0.00 74 1014.1
20260906090107 27 0.0 0.0 0.00 0.00 0.00 74 1014.1
20260906085602 27 0.0 0.0 0.00 0.00 0.00 74 1014.1
20260906085121 27 0.0 0.0 0.00 0.00 0.00 74 1014.1
20260906084559 27 0.0 1.6 0.00 0.00 0.00 72 1014.1
20260906084049 27 0.0 1.6 0.00 0.00 0.00 72 1014.0
20260906083556 27 225 3.2 4.8 0.00 0.00 0.00 71 1013.9
20260906083053 27 225 4.8 8.0 0.00 0.00 0.00 71 1013.9
20260906082551 27 225 4.8 6.4 0.00 0.00 0.00 71 1013.9
20260906082112 27 225 4.8 6.4 0.00 0.00 0.00 72 1014.0
20260906081556 27 225 3.2 6.4 0.00 0.00 0.00 72 1013.9
20260906081045 27 225 1.6 3.2 0.00 0.00 0.00 72 1013.9
20260906080735 27 225 1.6 3.2 0.00 0.00 0.00 72 1013.9
20260906080023 27 0.0 1.6 0.00 0.00 0.00 72 1013.9
20260906075522 27 0.0 1.6 0.00 0.00 0.00 71 1013.8
20260906075109 27 0.0 3.2 0.00 0.00 0.00 71 1013.7
20260906074608 27 225 1.6 4.8 0.00 0.00 0.00 71 1013.6
20260906074056 27 225 3.2 6.4 0.00 0.00 0.00 71 1013.5
20260906073524 27 225 1.6 6.4 0.00 0.00 0.00 71 1013.6
20260906073033 27 0.0 3.2 0.00 0.00 0.00 73 1013.7
20260906072532 27 0.0 1.6 0.00 0.00 0.00 73 1013.7
20260906072033 27 225 1.6 3.2 0.00 0.00 0.00 73 1013.8
20260906071543 27 0.0 1.6 0.00 0.00 0.00 72 1013.8
20260906071022 27 225 1.6 6.4 0.00 0.00 0.00 69 1013.7
20260906070547 27 225 1.6 4.8 0.00 0.00 0.00 69 1013.7
20260906070339 27 225 3.2 6.4 0.00 0.00 0.00 69 1013.8
20260906065543 27 225 4.8 6.4 0.00 0.00 0.00 69 1013.9
20260906065023 27 225 3.2 6.4 0.00 0.00 0.00 69 1013.9
20260906064543 28 225 1.6 3.2 0.00 0.00 0.00 68 1014.0
20260906064022 28 225 1.6 4.8 0.00 0.00 0.00 68 1014.0
20260906063609 28 225 1.6 3.2 0.00 0.00 0.00 68 1014.1
20260906063109 28 225 1.6 4.8 0.00 0.00 0.00 68 1014.0
20260906062535 28 0.0 0.0 0.00 0.00 0.00 69 1014.1
20260906062037 28 0.0 1.6 0.00 0.00 0.00 68 1014.2
20260906061555 28 0.0 1.6 0.00 0.00 0.00 68 1014.2
20260906061032 28 0.0 1.6 0.00 0.00 0.00 69 1014.2
20260906060613 28 0.0 0.0 0.00 0.00 0.00 69 1014.1
20260906055522 28 0.0 1.6 0.00 0.00 0.00 68 1014.1
20260906055042 28 0.0 3.2 0.00 0.00 0.00 67 1014.0
20260906054522 28 0.0 0.0 0.00 0.00 0.00 66 1014.0
20260906054042 29 0.0 1.6 0.00 0.00 0.00 66 1014.1
20260906053523 29 0.0 3.2 0.00 0.00 0.00 66 1014.0
20260906053023 29 0.0 3.2 0.00 0.00 0.00 65 1014.0
20260906052523 30 225 1.6 3.2 0.00 0.00 0.00 64 1014.1
20260906052022 30 225 1.6 3.2 0.00 0.00 0.00 62 1014.1
20260906051543 30 225 1.6 4.8 0.00 0.00 0.00 62 1014.0
20260906051022 30 225 1.6 4.8 0.00 0.00 0.00 62 1014.0
20260906050609 30 225 4.8 8.0 0.00 0.00 0.00 62 1014.0
20260906050112 30 203 4.8 8.0 0.00 0.00 0.00 61 1013.9
20260906045557 30 203 6.4 12.9 0.00 0.00 0.00 61 1013.9
20260906045126 30 225 6.4 12.9 0.00 0.00 0.00 61 1014.0
20260906044604 30 225 6.4 12.9 0.00 0.00 0.00 60 1014.0
20260906044103 30 203 4.8 9.7 0.00 0.00 0.00 60 1014.1
20260906043553 30 203 8.0 17.7 0.00 0.00 0.00 60 1014.1
20260906043023 30 203 8.0 20.9 0.00 0.00 0.00 60 1014.1
20260906042542 30 203 8.0 17.7 0.00 0.00 0.00 60 1014.1
20260906042022 30 203 8.0 17.7 0.00 0.00 0.00 60 1014.1
20260906041523 30 203 8.0 19.3 0.00 0.00 0.00 60 1014.0
20260906041023 30 203 8.0 14.5 0.00 0.00 0.00 60 1014.1
20260906040522 30 180 6.4 12.9 0.00 0.00 0.00 60 1014.1
20260906040049 30 203 4.8 12.9 0.00 0.00 0.00 60 1014.0
20260906035548 30 158 3.2 9.7 0.00 0.00 0.00 59 1014.1
20260906035047 30 158 3.2 8.0 0.00 0.00 0.00 58 1014.0
20260906034605 30 158 4.8 8.0 0.00 0.00 0.00 59 1014.0
20260906034030 30 180 3.2 8.0 0.00 0.00 0.00 60 1013.9
20260906033559 30 203 3.2 8.0 0.00 0.00 0.00 59 1013.8
20260906033039 30 203 3.2 9.7 0.00 0.00 0.00 59 1013.8
20260906032537 30 203 1.6 4.8 0.00 0.00 0.00 60 1013.8
20260906032035 30 203 1.6 3.2 0.00 0.00 0.00 58 1013.6
20260906031537 30 203 1.6 3.2 0.00 0.00 0.00 59 1013.5
20260906031032 30 0.0 0.0 0.00 0.00 0.00 59 1013.4
20260906030522 30 0.0 0.0 0.00 0.00 0.00 62 1013.5
20260906030034 30 0.0 0.0 0.00 0.00 0.00 62 1013.5
20260906025523 30 0.0 0.0 0.00 0.00 0.00 60 1013.5
20260906025022 30 0.0 1.6 0.00 0.00 0.00 59 1013.5
20260906024522 31 0.0 0.0 0.00 0.00 0.00 56 1013.5
20260906024022 31 0.0 0.0 0.00 0.00 0.00 55 1013.4
20260906023522 31 0.0 0.0 0.00 0.00 0.00 55 1013.2
20260906023022 31 0.0 0.0 0.00 0.00 0.00 56 1013.1
20260906022542 31 203 1.6 3.2 0.00 0.00 0.00 53 1013.1
20260906022022 31 0.0 3.2 0.00 0.00 0.00 52 1012.9
20260906021542 32 0.0 3.2 0.00 0.00 0.00 52 1012.9
20260906021238 32 203 1.6 4.8 0.00 0.00 0.00 52 1012.8
20260906020559 32 203 3.2 4.8 0.00 0.00 0.00 51 1012.8
20260906020041 32 203 3.2 4.8 0.00 0.00 0.00 50 1012.7
20260906015538 32 203 3.2 8.0 0.00 0.00 0.00 50 1012.6
20260906015043 32 203 3.2 6.4 0.00 0.00 0.00 50 1012.5
20260906014533 32 203 3.2 6.4 0.00 0.00 0.00 50 1012.4
20260906014023 33 203 3.2 6.4 0.00 0.00 0.00 49 1012.3
20260906013533 33 203 3.2 6.4 0.00 0.00 0.00 49 1012.3
20260906013042 33 203 4.8 8.0 0.00 0.00 0.00 48 1012.3
20260906012522 33 203 3.2 6.4 0.00 0.00 0.00 48 1012.1
20260906012118 33 203 4.8 6.4 0.00 0.00 0.00 47 1012.1
20260906011555 33 203 4.8 8.0 0.00 0.00 0.00 47 1012.0
20260906011051 34 225 4.8 8.0 0.00 0.00 0.00 46 1012.0
20260906010549 34 203 3.2 6.4 0.00 0.00 0.00 46 1012.0
20260906010107 35 203 3.2 6.4 0.00 0.00 0.00 45 1012.0
20260906005547 35 180 3.2 6.4 0.00 0.00 0.00 45 1012.0
20260906005107 35 180 4.8 11.3 0.00 0.00 0.00 44 1011.9
20260906004533 35 203 3.2 8.0 0.00 0.00 0.00 44 1011.9
20260906004022 35 203 3.2 8.0 0.00 0.00 0.00 43 1011.9
20260906003541 35 203 4.8 9.7 0.00 0.00 0.00 43 1011.9
20260906003037 36 203 4.8 9.7 0.00 0.00 0.00 42 1011.9
20260906002537 36 203 4.8 9.7 0.00 0.00 0.00 43 1012.0
20260906002035 36 158 4.8 9.7 0.00 0.00 0.00 42 1011.9
20260906001541 36 158 6.4 12.9 0.00 0.00 0.00 41 1012.0
20260906001034 36 225 4.8 16.1 0.00 0.00 0.00 41 1011.9
20260906000521 37 203 4.8 9.7 0.00 0.00 0.00 40 1011.8
20260906000022 37 225 3.2 8.0 0.00 0.00 0.00 40 1011.8
20260905235522 37 135 4.8 14.5 0.00 0.00 0.00 40 1011.9
20260905235042 38 158 4.8 12.9 0.00 0.00 0.00 39 1011.9
20260905234522 38 158 8.0 16.1 0.00 0.00 0.00 38 1011.8
20260905234022 38 135 6.4 14.5 0.00 0.00 0.00 39 1011.8
20260905233548 38 158 8.0 17.7 0.00 0.00 0.00 39 1011.8
20260905233048 38 158 8.0 16.1 0.00 0.00 0.00 39 1011.7
20260905232547 38 135 6.4 14.5 0.00 0.00 0.00 37 1011.7
20260905232045 38 158 6.4 17.7 0.00 0.00 0.00 39 1011.8
20260905231522 37 158 6.4 11.3 0.00 0.00 0.00 39 1011.8
20260905231237 37 225 8.0 12.9 0.00 0.00 0.00 38 1011.7
20260905230559 38 203 6.4 16.1 0.00 0.00 0.00 39 1011.8
20260905230038 38 203 9.7 17.7 0.00 0.00 0.00 37 1011.7
20260905225527 38 158 6.4 14.5 0.00 0.00 0.00 37 1011.7
20260905225035 38 225 4.8 14.5 0.00 0.00 0.00 38 1011.7
20260905224533 38 203 6.4 16.1 0.00 0.00 0.00 36 1011.8
20260905224109 38 135 11.3 20.9 0.00 0.00 0.00 38 1011.8
20260905223549 38 135 9.7 17.7 0.00 0.00 0.00 38 1011.8
20260905223059 38 203 6.4 16.1 0.00 0.00 0.00 37 1011.8
20260905222617 38 135 6.4 14.5 0.00 0.00 0.00 38 1011.8
20260905222022 38 180 8.0 17.7 0.00 0.00 0.00 38 1011.8
20260905221542 38 158 6.4 14.5 0.00 0.00 0.00 37 1011.9